TimeCST,TemperatureF,Dew PointF,Humidity,Sea Level PressureIn,VisibilityMPH,Wind Direction,Wind SpeedMPH,Gust SpeedMPH,PrecipitationIn,Events,Conditions,WindDirDegrees,DateUTC
12:00 AM,69,59,62,29.83,12,ESE,6.9,,,,Clear,110,2013-12-01 06:00:00
12:00 AM,69.8,59.0,68,30.01,-9999.0,ESE,6.9,-,N/A,,Clear,110,2013-12-01 06:00:00
1:00 AM,68.0,59.0,73,29.99,-9999.0,ESE,6.9,-,N/A,,Clear,110,2013-12-01 07:00:00
2:00 AM,68.0,57.2,68,29.97,-9999.0,ENE,3.5,-,N/A,,Clear,70,2013-12-01 08:00:00
3:00 AM,68,58,63,29.85,12,East,10.4,,,,Mostly Cloudy,90,2013-12-01 09:00:00
3:00 AM,68.0,59.0,73,29.96,-9999.0,East,10.4,-,N/A,,Clear,90,2013-12-01 09:00:00
4:00 AM,68.0,59.0,73,29.96,6.2,East,6.9,-,N/A,,Light Drizzle,80,2013-12-01 10:00:00
5:00 AM,68.0,59.0,73,29.97,6.2,East,6.9,-,N/A,,Scattered Clouds,80,2013-12-01 11:00:00
6:00 AM,68,55,53,29.88,12,East,6.9,,,,Scattered Clouds,90,2013-12-01 12:00:00
6:00 AM,68.0,55.4,64,29.99,6.2,East,6.9,-,N/A,,Partly Cloudy,90,2013-12-01 12:00:00
7:00 AM,71.6,53.6,53,30.01,-9999.0,East,9.2,-,N/A,,Clear,80,2013-12-01 13:00:00
8:00 AM,73.4,55.4,53,30.03,-9999.0,East,9.2,-,N/A,,Clear,90,2013-12-01 14:00:00
9:00 AM,76,56,39,29.90,12,East,24.2,,,,Scattered Clouds,80,2013-12-01 15:00:00
9:00 AM,75.2,55.4,50,30.04,6.2,East,11.5,24.2,N/A,,Partly Cloudy,80,2013-12-01 15:00:00
10:00 AM,75.2,59.0,57,30.04,6.2,East,11.5,-,N/A,,Partly Cloudy,100,2013-12-01 16:00:00
11:00 AM,77.0,57.2,50,30.02,6.2,ENE,11.5,26.5,N/A,,Scattered Clouds,70,2013-12-01 17:00:00
12:00 PM,80,56,33,29.84,12,NE,26.5,,,,Partly Cloudy,50,2013-12-01 18:00:00
12:00 PM,80.6,55.4,42,30.00,6.2,NE,15.0,26.5,N/A,,Scattered Clouds,50,2013-12-01 18:00:00
1:00 PM,80.6,59.0,48,29.98,6.2,ENE,11.5,-,N/A,,Scattered Clouds,70,2013-12-01 19:00:00
2:00 PM,77.0,55.4,47,29.96,6.2,NE,15.0,-,N/A,,Scattered Clouds,50,2013-12-01 20:00:00
3:00 PM,77,57,40,29.83,12,ENE,13.8,,,,Scattered Clouds,70,2013-12-01 21:00:00
3:00 PM,77.0,57.2,50,29.95,6.2,ENE,13.8,-,N/A,,Scattered Clouds,70,2013-12-01 21:00:00
4:00 PM,75.2,55.4,50,29.96,6.2,East,9.2,20.7,N/A,,Mostly Cloudy,80,2013-12-01 22:00:00
5:00 PM,73.4,55.4,53,29.98,6.2,ENE,8.1,-,N/A,,Mostly Cloudy,60,2013-12-01 23:00:00
6:00 PM,71,58,55,29.87,12,SSE,3.5,,,,Scattered Clouds,160,2013-12-02 00:00:00
6:00 PM,71.6,59.0,64,29.99,6.2,SSE,3.5,-,N/A,,Scattered Clouds,160,2013-12-02 00:00:00
7:00 PM,69.8,59.0,68,30.02,-9999.0,ESE,5.8,-,N/A,,Clear,110,2013-12-02 01:00:00
8:00 PM,69.8,59.0,68,30.03,-9999.0,East,8.1,-,N/A,,Clear,100,2013-12-02 02:00:00
9:00 PM,69.8,57.2,64,30.03,-9999.0,East,6.9,-,N/A,,Clear,90,2013-12-02 03:00:00
10:00 PM,68.0,57.2,68,30.03,-9999.0,ESE,3.5,-,N/A,,Clear,120,2013-12-02 04:00:00
11:00 PM,68.0,59.0,73,30.02,-9999.0,ESE,6.9,-,N/A,,Clear,110,2013-12-02 05:00:00